www.pogodaiklimat.ru

Погода и климат >> Архив погоды >> Словения >> Любляна


ПОГОДА в Любляне

  • Прогноз погоды в Любляне
  • Монитор погоды в Любляне

АРХИВ ПОГОДЫ в Любляне

Время (UTC), дата Ветер
(напр.,м/с)
 
Видим.   Явления Облачность Т
(С)
Тd
(С)
f
(%)
Тe
(С)
Тes
(С)
Комфортность P
(гПа)
Po
(гПа)
Тmin
(С)
Tmax
(С)
R
(мм)
R24
(мм)
S
(см)
04 16.08 штиль 0 20 км 10/10 1000 м
[Cu Sc]
+15.5 +12.8 84 +15 +15 1017.3 982.4
05 16.08 штиль 0 20 км слаб. дождь 10/8 1000 м
[Cu Sc Ac As]
+15.7 +13.0 84 +15 +15 1017.8 982.9
06 16.08 штиль 0
{1}
12 км слаб. дождь 10/10 90 м
[Cu Sc Ac As]
+15.9 +13.2 84 +16 +16 1018.4 983.5 +15.3 1
07 16.08 СВ 1 12 км 9/6 90 м
[Cu Sc Ac As]
+16.2 +14.3 89 +17 +18 1018.9 984.1
08 16.08 штиль 0 12 км 6/4 180 м
[Cu Sc Ac As]
+17.8 +13.9 78 +18 +23 1018.8 984.2
09 16.08 СВ 1
{3}
20 км 5/3 90 м
[Cu Sc Ac trans Ci fib]
+19.4 +14.3 72 +22 +31 комфорт 1018.8 984.3
10 16.08 ЮВ 1
{4}
н/о н/о +21.0 +13.9 64 +25 +25 комфорт 1018.2 983.9
11 16.08 Ю 2
{4}
н/о н/о +22.8 +13.9 57 +26 +26 жарко 1017.8 983.8
12 16.08 Ю 2
{5}
30 км 5/0
[]
+23.6 +13.3 52 +26 +37 жарко 1017.0 983.1 0.3
13 16.08 ЮВ 2
{7}
30 км 6/0
[]
+24.3 +13.1 50 +26 +35 жарко 1016.4 982.6
14 16.08 ЮВ 2
{4}
н/о н/о +24.7 +13.6 50 +27 +27 жарко 1016.2 982.4
15 16.08 В 1
{5}
н/о н/о +23.5 +12.5 50 +25 +25 комфорт 1016.1 982.2
16 16.08 ЮВ 2
{4}
н/о н/о +23.9 +12.0 47 +26 +26 жарко 1016.0 982.1
17 16.08 СВ 1
{4}
н/о н/о +22.1 +14.1 60 +25 +25 комфорт 1016.4 982.3
18 16.08 СВ 2
{3}
40 км 3/0
[]
+20.8 +14.2 66 +24 +24 комфорт 1016.8 982.6 +25.2 0.3
19 16.08 СВ 2
{2}
40 км 3/0
[]
+19.5 +13.8 70 +22 +22 комфорт 1017.7 983.3
20 16.08 штиль 0 40 км 3/0
[]
+18.4 +13.7 74 +19 +19 1018.3 983.7
21 16.08 штиль 0
{1}
н/о н/о +17.6 +14.4 82 +18 +18 1018.7 984.0
22 16.08 штиль 0
{2}
н/о н/о +16.5 +13.9 85 +16 +16 1019.0 984.2
23 16.08 штиль 0
{1}
н/о н/о +15.9 +13.9 88 +16 +16 1018.9 984.0
00 17.08 штиль 0 н/о н/о +15.3 +13.4 88 +15 +15 1018.8 983.9
01 17.08 штиль 0 н/о н/о +14.7 +13.0 90 +14 +14 1018.8 983.8
02 17.08 штиль 0
{1}
н/о н/о +14.2 +12.9 92 +14 +14 1018.5 983.4
03 17.08 штиль 0
{1}
н/о н/о +13.9 +12.4 91 +13 +13 1018.2 983.1
04 17.08 штиль 0 1000 м туман на расстоянии 6/6 30 м
[St]
+13.1 +12.1 94 +13 +13 1018.8 983.6
05 17.08 штиль 0
{1}
400 м туман ?/? +13.3 +12.6 96 +13 +13 1018.9 983.7
06 17.08 штиль 0 400 м туман ?/? +13.8 +12.9 94 +13 +13 1019.0 983.9 +13.0
07 17.08 штиль 0 1000 м туман на расстоянии 6/5 90 м
[St Ci sp]
+14.8 +13.2 90 +14 +18 1018.9 983.9
08 17.08 СВ 1
{2}
10 км 8/1 90 м
[St Ac trans Ci sp]
+17.0 +13.8 81 +18 +24 1018.4 983.7
09 17.08 С 1
{2}
40 км {туман} 6/1 1200 м
[Cu hum Ac trans Ci sp]
+19.3 +13.9 71 +22 +31 комфорт 1018.1 983.7
10 17.08 штиль 0
{2}
н/о н/о +22.0 +13.6 59 +25 +25 комфорт 1017.1 983.0
11 17.08 СВ 1
{4}
н/о н/о +24.1 +14.2 54 +27 +27 жарко 1016.0 982.2
12 17.08 З 2
{5}
40 км 1/0
[]
+25.6 +13.7 48 +28 +42 жарко 1015.1 981.5
13 17.08 ЮЗ 2
{5}
40 км 3/0
[]
+27.4 +14.5 45 +30 +40 жарко 1014.7 981.3
14 17.08 ЮЗ 3
{7}
н/о н/о +28.0 +12.8 39 +29 +29 жарко 1014.3 980.9
15 17.08 ЮЗ 4
{8}
н/о н/о +28.0 +12.7 39 +29 +29 жарко 1014.2 980.8
16 17.08 ЮЗ 4
{8}
н/о н/о +27.3 +13.1 42 +29 +29 жарко 1014.2 980.8
17 17.08 ЮЗ 4
{8}
н/о н/о +25.3 +12.0 43 +27 +27 жарко 1014.6 980.9
18 17.08 ЮЗ 3
{6}
50 км 9/0
[]
+24.3 +11.2 44 +26 +26 жарко 1014.6 980.8 +28.5
19 17.08 ЮЗ 2
{5}
н/о н/о +22.5 +11.3 49
20 17.08 Ю 2 50 км 5/0
[]
+21.1 +11.5 54 +23 +23 комфорт 1015.4 981.2
21 17.08 ЮЗ 1
{2}
н/о н/о +20.0 +10.9 56 +23 +23 комфорт 1015.6 981.3
22 17.08 СЗ 1
{4}
н/о н/о +19.6 +10.9 57 +22 +22 комфорт 1015.7 981.3
23 17.08 З 1
{2}
н/о н/о +18.4 +11.0 62 +20 +20 1015.9 981.4
00 18.08 штиль 0
{1}
н/о н/о +16.7 +12.2 75 +17 +17 1016.4 981.7
01 18.08 штиль 0
{1}
н/о н/о +16.3 +11.9 75 +16 +16 1016.4 981.6
02 18.08 штиль 0
{1}
н/о н/о +15.9 +12.1 78 +16 +16 1016.2 981.4
03 18.08 штиль 0
{2}
н/о н/о +15.6 +12.0 79 +15 +15 1016.1 981.3
04 18.08 штиль 0
{2}
50 км 1/0
[Ac trans Ci fib]
+15.0 +12.0 82 +15 +15 1016.2 981.3
05 18.08 СВ 1
{2}
50 км 1/0
[Ac trans Ci fib]
+15.4 +12.5 83 +16 +16 1016.3 981.4
06 18.08 штиль 0 50 км 1/0
[Ac trans Ci fib]
+17.2 +13.3 78 +17 +20 1016.2 981.6 +15.0
07 18.08 С 1
{3}
50 км 1/0
[Ac trans Ci fib]
+18.5 +14.1 76 +20 +26 1016.0 981.5
08 18.08 В 1
{3}
50 км 1/0
[Ac lent Ci fib]
+22.5 +14.6 61 +26 +26 жарко 1015.5 981.5
09 18.08 З 1
{4}
50 км 1/0
[]
+25.0 +16.2 58 +28 +42 жарко 1014.9 981.2
10 18.08 ЮЗ 2
{6}
н/о н/о +27.2 +16.2 51 +31 +31 душно 1014.4 981.0
11 18.08 ЮЗ 2
{6}
н/о н/о +27.9 +16.8 51 +32 +32 душно 1014.1 980.8
12 18.08 ЮЗ 4
{8}
50 км 1/0
[]
+28.6 +16.3 47 +32 +41 душно 1013.9 980.7
13 18.08 ЮЗ 5
{9}
50 км 1/0
[]
+28.9 +16.1 46 +32 +38 душно 1013.9 980.7
14 18.08 ЮЗ 5
{10}
н/о н/о +28.8 +16.0 46 +32 +32 душно 1013.9 980.7
15 18.08 ЮЗ 5
{9}
н/о н/о +29.0 +16.0 45 +32 +32 душно 1013.7 980.5
16 18.08 ЮЗ 4
{8}
н/о н/о +28.6 +15.6 45 +31 +31 жарко 1013.6 980.4
17 18.08 ЮЗ 3
{7}
н/о н/о +27.6 +15.5 48 +31 +31 душно 1013.7 980.3
18 18.08 З 2
{6}
50 км 5/0
[]
+26.1 +15.1 51 +29 +29 жарко 1013.8 980.3 +29.6
19 18.08 ЮЗ 1
{2}
60 км 4/0
[]
+24.5 +15.3 57 +27 +27 жарко 1014.4 980.7
20 18.08 Ю 2 60 км 3/0
[]
+23.2 +15.4 62 +27 +27 душно 1014.9 981.0
21 18.08 Ю 2
{3}
н/о н/о +22.2 +15.2 65 +26 +26 душно 1014.9 980.9
22 18.08 Ю 2
{4}
н/о н/о +21.2 +15.5 70 +24 +24 комфорт 1015.4 981.3
23 18.08 ЮЗ 1
{4}
н/о н/о +20.1 +15.2 73 +24 +24 комфорт 1015.6 981.3
00 19.08 ЮЗ 1
{4}
н/о н/о +20.0 +14.9 72 +23 +23 комфорт 1015.5 981.2
01 19.08 З 1
{3}
н/о н/о +19.7 +14.9 74 +23 +23 комфорт 1015.6 981.3
02 19.08 штиль 0
{1}
н/о н/о +18.3 +15.3 83 +19 +19 1015.7 981.2
03 19.08 С 1
{2}
н/о н/о +17.6 +15.6 88 +19 +19 1015.8 981.3
04 19.08 штиль 0
{1}
50 км 1/0
[Ac lent]
+17.2 +15.2 88 +17 +17 1016.1 981.5
05 19.08 штиль 0
{2}
50 км 1/0
[Ci fib]
+17.1 +15.2 89 +17 +18 1016.3 981.7
06 19.08 СВ 1
{2}
50 км ясно +18.8 +15.5 81 +21 +24 комфорт 1016.3 981.9 +16.8
07 19.08 СВ 1
{3}
50 км ясно +20.5 +16.1 76 +25 +31 комфорт 1016.2 982.0
08 19.08 В 2
{3}
50 км 1/0
[Ci fib]
+23.4 +16.8 66 +28 +37 душно 1015.9 982.0
09 19.08 штиль 0
{2}
50 км 1/1 2000 м
[Cu hum Ci fib]
+25.5 +16.1 56 +29 +43 душно 1016.0 982.3
10 19.08 штиль 0
{3}
50 км 1/1 1500 м
[Cu hum Ci fib]
+27.4 +16.7 52 +31 +31 душно 1015.4 982.0
11 19.08 ЮЗ 2
{5}
50 км 1/1 1500 м
[Cu hum Ci fib]
+29.4 +16.9 47 +33 +47 душно 1015.0 981.8
12 19.08 ЮЗ 3
{8}
40 км 4/1 1300 м
[Cu med, cong Ci sp]
+30.7 +16.3 42 +34 +44 очень
душно
1014.7 981.7
13 19.08 ЮЗ 4
{7}
40 км 3/1 1300 м
[Cu med, cong Ci sp]
+31.0 +15.2 38 +33 +40 душно 1014.8 981.8
14 19.08 ЮЗ 3
{8}
н/о н/о +31.7 +15.3 37 +34 +34 душно 1014.5 981.6
15 19.08 ЮЗ 3
{6}
н/о н/о +31.5 +14.4 35 +33 +33 жарко 1014.4 981.4
16 19.08 ЮЗ 3
{6}
40 км 3/1 1500 м
[Cu hum Ci fib]
+31.1 +14.9 37 +33 +33 душно 1014.2 981.2
17 19.08 З 2
{5}
40 км 3/1 1500 м
[Cu hum Ci fib]
+30.1 +14.3 38 +32 +32 жарко 1014.6 981.5
18 19.08 З 2
{5}
30 км 3/1 1500 м
[Cu hum Ac lent Ci fib]
+27.9 +13.7 42 +30 +30 жарко 1015.3 981.9 +31.9
19 19.08 ЮЗ 1
{3}
40 км 1/0
[Ac trans Ci fib]
+25.9 +14.9 51 +29 +29 душно 1016.3 982.7
20 19.08 Ю 2
{4}
40 км 1/0
[Ac trans Ci fib]
+24.5 +15.1 56 +27 +27 жарко 1016.8 983.0
21 19.08 штиль 0
{1}
н/о н/о +23.1 +15.4 62 +27 +27 душно 1017.4 983.4
22 19.08 штиль 0
{1}
н/о н/о +22.1 +15.7 67 +26 +26 душно 1017.8 983.7
23 19.08 СВ 1
{2}
н/о н/о +20.5 +16.5 78 +25 +25 комфорт 1018.1 983.8
00 20.08 С 1
{1}
н/о н/о +19.8 +16.6 82 +23 +23 комфорт 1018.2 983.8
01 20.08 штиль 0 н/о н/о +19.3 +16.4 83 +21 +21 комфорт 1018.2 983.8
02 20.08 штиль 0 н/о н/о +18.7 +16.3 86 +20 +20 1018.7 984.2
03 20.08 штиль 0
{1}
н/о н/о +18.3 +16.2 88 +19 +19 1018.9 984.3
04 20.08 штиль 0
{1}
40 км 1/0
[Ac lent Ci fib]
+17.8 +15.9 89 +18 +18 1019.2 984.6
05 20.08 штиль 0
{1}
40 км 1/0
[Ac lent Ci fib]
+18.1 +16.1 88 +18 +19 1019.4 984.8
06 20.08 штиль 0
{2}
40 км 1/0
[Ac lent]
+19.5 +16.3 82 +21 +24 комфорт 1019.3 984.9 +17.7
07 20.08 штиль 0
{2}
50 км ясно +20.8 +16.0 74 +24 +31 комфорт 1019.4 985.1
08 20.08 СВ 1
{2}
50 км 1/1 2000 м
[Cu hum]
+23.9 +17.2 66 +28 +37 душно 1018.9 985.0
09 20.08 З 1
{3}
50 км 4/1 2000 м
[Cu hum Ac trans Ci sp]
+25.3 +17.2 61 +29 +40 душно 1018.9 985.1
10 20.08 В 2
{5}
50 км 1/1 2000 м
[Cu hum Ac lent Ci sp]
+27.4 +18.2 57 +32 +45 очень
душно
1018.3 984.8
11 20.08 С 1
{4}
40 км 1/1
[Cu hum Ac trans Ci sp]
+28.2 +18.5 56 +33 +49 очень
душно
1017.8 984.4
12 20.08 Ю 2
{4}
40 км 1/1 1500 м
[Cu med, cong Ci sp]
+29.6 +18.4 51 +34 +47 очень
душно
1017.2 984.0
13 20.08 СВ 2
{5}
40 км 1/1 1500 м
[Cu med, cong Ci sp]
+30.5 +18.3 48 +35 +46 очень
душно
1016.5 983.4
14 20.08 СВ 3
{6}
н/о н/о +31.1 +18.3 46 +36 +36 очень
душно
1016.1 983.1
15 20.08 СВ 1
{6}
н/о н/о +31.2 +17.2 43 +35 +35 очень
душно
1015.9 982.9
16 20.08 В 2
{5}
40 км 1/1 1500 м
[Cu hum]
+31.4 +17.9 45 +36 +38 очень
душно
1015.6 982.6
17 20.08 ЮВ 2
{4}
40 км 1/1 1500 м
[Cu hum]
+30.0 +18.4 50 +35 +35 очень
душно
1015.7 982.6
18 20.08 ЮВ 1
{3}
40 км 1/1 1500 м
[Cu hum Ac trans]
+28.3 +19.9 60 +34 +34 очень
душно
1016.2 982.9 +31.9
19 20.08 В 1
{2}
40 км 1/0
[Ac trans]
+27.0 +20.2 66 +33 +33 очень
душно
1016.7 983.3
20 20.08 С 1
{2}
30 км ясно +25.4 +20.2 73 +31 +31 очень
душно
1017.2 983.6
21 20.08 С 2
{3}
н/о н/о +24.3 +19.9 76 +30 +30 очень
душно
1017.4 983.6
22 20.08 С 1
{2}
н/о н/о +23.4 +19.5 79 +30 +30 очень
душно
1017.5 983.6
23 20.08 штиль 0
{2}
н/о н/о +22.8 +19.6 82 +29 +29 очень
душно
1017.4 983.5
00 21.08 штиль 0
{1}
н/о н/о +22.0 +19.1 84 +27 +27 душно 1017.4 983.4
01 21.08 штиль 0
{1}
н/о н/о +21.7 +19.4 87 +27 +27 душно 1017.5 983.4
02 21.08 штиль 0
{1}
н/о н/о +21.5 +19.7 89 +27 +27 душно 1017.6 983.5
03 21.08 штиль 0
{1}
н/о н/о +21.0 +19.0 88 +25 +25 комфорт 1017.7 983.5
04 21.08 штиль 0
{1}
30 км 9/0
[Ac trans Ci sp]
+20.6 +19.1 91 +24 +24 комфорт 1018.3 984.1
05 21.08 СВ 1
{2}
30 км 8/0
[Ac trans Ci sp]
+20.7 +18.7 88 +26 +26 душно 1018.9 984.7
06 21.08 СВ 1
{2}
30 км 8/0
[Ac trans Cc]
+22.0 +19.0 83 +27 +29 душно 1019.5 985.4 +20.4
07 21.08 ЮВ 1
{2}
30 км 8/1 1200 м
[Sc Ac trans Cc]
+23.8 +19.0 75 +29 +32 душно 1019.9 986.0
08 21.08 В 2 30 км 9/3 1000 м
[Cu Sc Ac trans Cs]
+25.5 +19.2 68 +31 +34 очень
душно
1020.2 986.5
09 21.08 ЮВ 2
{5}
40 км 10/8 1000 м
[Cu Sc Ac trans]
+25.0 +19.2 70 +30 +31 душно 1020.7 986.9
10 21.08 В 2
{5}
40 км слаб. ливневой дождь 10/6 1000 м
[Cu Sc Ac trans]
+24.3 987.3
11 21.08 В 3 40 км 9/5 1200 м
[Cu Sc Ac trans Ci sp]
+24.2 +18.4 70 +29 +32 душно 1021.4 987.5
12 21.08 В 4
{8}
40 км 9/6 1200 м
[Cu Sc Ac trans Ci sp]
+24.2 +16.9 64 +28 +30 душно 1021.8 987.8 0.2
13 21.08 В 5 40 км 8/4 1200 м
[Cu Sc Ac trans Cs]
+25.3 +15.8 56 +29 +31 душно 1021.8 987.9
14 21.08 В 4
{8}
н/о н/о +24.9 +15.2 55 +28 +28 жарко 1022.0 988.1
15 21.08 В 4
{8}
н/о н/о +24.9 +15.3 55 +28 +28 жарко 1021.9 988.0
16 21.08 ЮВ 3 40 км 8/4 1000 м
[Cu Sc Ac trans Ci fib]
+24.3 +15.0 56 +27 +28 жарко 1022.1 988.1
17 21.08 В 3
{5}
40 км 9/3 1000 м
[Cu Sc Ac As Ci fib]
+23.4 +14.9 59 +27 +28 душно 1022.6 988.5
18 21.08 В 2
{5}
30 км 8/3 600 м
[Sc Ac As Ci fib]
+22.3 +14.6 62 +26 +26 жарко 1022.9 988.6 +25.7 0.2
19 21.08 В 3
{5}
30 км 5/1 1200 м
[Sc Ac As Ci fib]
+21.3 +14.3 64 +24 +24 комфорт 1023.7 989.3
20 21.08 В 2
{3}
30 км 3/0
[Ac trans Ci fib]
+20.4 +14.2 68 +24 +24 комфорт 1023.9 989.4
21 21.08 СВ 2
{3}
н/о н/о +19.5 +14.2 71 +22 +22 комфорт 1024.5 989.9
22 21.08 В 1
{2}
н/о н/о +19.6 +13.7 69 +22 +22 комфорт 1024.8 990.2
23 21.08 В 1
{3}
н/о н/о +19.6 +13.8 69 +22 +22 комфорт 1024.6 990.0
00 22.08 штиль 0
{3}
н/о н/о +19.3 +13.1 67 +20 +20 1024.8 990.1
01 22.08 штиль 0
{3}
н/о н/о +18.4 +14.2 77 +19 +19 1024.7 989.9
02 22.08 Ю 1
{2}
н/о н/о +18.7 +12.9 69 +21 +21 комфорт 1024.5 989.8
03 22.08 В 1
{2}
н/о н/о +18.6 +12.9 69 +20 +20 1024.6 989.8
04 22.08 В 1 20 км 6/4 1000 м
[Cu Sc Ac As Cs]
+17.8 +12.1 69 +19 +19 1024.4 989.5
05 22.08 В 1 20 км 6/4 180 м
[Cu Sc Ac As Ci sp]
+17.9 +12.1 69 +19 +19 1024.7 989.8
06 22.08 С 2
{4}
20 км 8/4 180 м
[Cu Sc Ac As Ci sp]
+18.7 +14.5 77 +20 +21 1024.8 990.1 +17.4
07 22.08 штиль 0 20 км 8/4 180 м
[Cu Sc Ac As Ci sp]
+19.0 +13.3 70 +20 +23 1024.4 989.7
08 22.08 СВ 2 30 км 8/5 1000 м
[Cu Sc Ac As Ci sp]
+20.2 +12.9 63 +23 +26 комфорт 1024.5 989.9
09 22.08 СВ 1
{3}
20 км 9/4 1000 м
[Cu Sc Ac As Ci sp]
+20.4 +12.9 62 +24 +28 комфорт 1024.6 990.0
10 22.08 В 2
{3}
30 км 9/5 800 м
[Cu Sc Ac As Cs]
+21.4 989.6
11 22.08 В 2 30 км 9/6 1000 м
[Cu Sc Ac cast Cs]
+22.0 +13.9 60 +25 +29 комфорт 1023.5 989.2
12 22.08 СВ 2
{3}
40 км 9/6 1000 м
[Cu Sc Ac As]
+21.8 +13.7 60 +25 +27 комфорт 1023.4 989.1
13 22.08 СВ 3 40 км 9/8 1000 м
[Cu Sc Ac As]
+22.5 +13.3 56 +25 +27 комфорт 1022.9 988.6
14 22.08 СВ 3
{5}
н/о н/о +23.5 +12.7 51 +26 +26 жарко 1022.4 988.3
15 22.08 В 1
{3}
н/о н/о +23.7 +13.3 52 +26 +26 жарко 1022.1 988.0
16 22.08 В 3 40 км 6/3 1200 м
[Cu Sc Ac As Ci fib]
+24.1 +13.1 50 +26 +27 жарко 1021.8 987.8
17 22.08 В 2 40 км 8/3 1200 м
[Cu Sc Ac As Ci fib]
+23.3 +13.9 55 +27 +27 душно 1022.0 987.9
18 22.08 ЮВ 1
{4}
40 км 8/1 1500 м
[Sc Ac As Ci fib]
+22.3 +14.3 61 +26 +26 жарко 1022.4 988.2 +24.5
19 22.08 В 1
{3}
30 км 8/1 1200 м
[Sc Ac As Ci fib]
+21.2 +14.8 67 +24 +24 комфорт 1023.5 989.1
20 22.08 штиль 0 30 км 9/3 1200 м
[Sc Ac cuf Ci fib]
+20.6 +15.6 73 +23 +23 комфорт 1024.1 989.6
21 22.08 СВ 1
{2}
н/о н/о +20.0 +15.7 76 +24 +24 комфорт 1024.1 989.6
22 22.08 С 1
{3}
н/о н/о +19.2 +15.8 81 +22 +22 комфорт 1024.1 989.5
23 22.08 штиль 0
{2}
н/о н/о +18.9 +15.8 82 +20 +20 1024.1 989.4
00 23.08 штиль 0
{1}
н/о н/о +19.2 +15.9 81 +21 +21 комфорт 1024.1 989.5
01 23.08 СВ 1
{2}
н/о н/о +18.9 +16.0 83 +21 +21 комфорт 1024.1 989.4
02 23.08 штиль 0
{2}
н/о н/о +18.8 +15.9 83 +20 +20 1024.0 989.3
03 23.08 штиль 0
{1}
н/о н/о +19.1 +15.7 81 +20 +20 1023.7 989.1

 

Местоположение метеостанции Любляна (Словения): широта 46.07 долгота 14.52 высота над уровнем моря 298 м.

В архиве по умолчанию представлена погода в Любляне за последнюю неделю. Архивные данные за месяц целиком и за предыдущие месяцы, начиная с января 2011 года, Вы можете получить, выбрав интересующий диапазон дат из раскрывающегося списка и нажав кнопку "Ввод!".


*Определитесь, кто Вы:
робот инопланетянин человек

Внимание! Время в таблицах - всемирное. Для получения местного времени необходимо прибавить поправку, которая равна 1 ч.

Смотрите также архив погоды в соседних городах и на ближайших метеорологических станциях:

Погода в Катарине (Словения) (12 км)
Погода в Любляне (Словения) (17 км)
Погода в Постойнской (Словения) (42 км)
Погода в Лесце (Словения) (42 км)
Погода Айзенкаппель-Феллах (Австрия) (46 км)
Погода на Войско (Словения) (48 км)
Погода в Парке (Хорватия) (53 км)
Погода в Кочевье (Словения) (53 км)
Погода на Вогеле (Словения) (58 км)
Погода на Лиске (Словения) (59 км)

Пояснения к столбцам:

Ветер - указаны скорость ветра в м/с - средняя за 10 мин, порывы в срок и между сроками (в фигурных скобках) и направление, откуда дует ветер: С - северный, СВ - северо-восточный, В - восточный, ЮВ - юго-восточный, Ю - южный, ЮЗ - юго-западный, З - западный, СЗ - северо-западный.
Видимость - горизонтальная дальность видимости в метрах или километрах. При видимости от 1 до 10 км при отсутствии осадков обычно наблюдается дымка, при ухудшении видимости до 1 км и менее - туман. В сухую погоду видимость может ухудшаться дымом, пылью или мглою.
Явления - указаны атмосферные явления, наблюдавшиеся в срок или в последний час перед сроком; фигурными скобками обозначены явления, наблюдавшиеся между сроками (за 1-3 часа до срока); квадратными скобками обозначены град или гололедные отложения с указанием их диаметра в мм.
Облачность - указаны через наклонную черту общая и нижняя облачность в баллах и высота нижней границы облаков в метрах; квадратными скобками обозначены формы облаков: Ci - перистые, Cs - перисто-слоистые, Cc - перисто-кучевые, Ac - высококучевые, As - высокослоистые, Sc - слоисто-кучевые, Ns - слоисто-дождевые, Cu - кучевые, Cb - кучево-дождевые. Подробнее классификацию облаков см. в Атласе облаков (PDF).
T - Температура воздуха - температура, измеренная на высоте 2 м над землей.
Td - Температура точки росы - температура, при понижении до которой содержащийся в воздухе водяной пар достигнет насыщения.
f - Относительная влажность воздуха - влажноcть воздуха, измеренная на высоте 2 м над землей.
Te - Эффективная температура - температура, которую ощущает одетый по сезону человек в тени. Характеристика душности погоды. При расчете учитывается влияние влажности воздуха и скорости ветра на теплоощущения человека.
Tes - Эффективная температура на солнце - температура, которую ощущает человек, с поправкой на солнечный нагрев. Характеристика знойности погоды. Зависит от высоты солнца над горизонтом, облачности и скорости ветра. Ночью, в пасмурную погоду, а также при ветре 12 м/с и более поправка равна нулю.
P - Атмосферное давление - приведенное к уровню моря атмосферное давление.
Po - Атмосферное давление - измеренное на уровне метеостанции атмосферное давление.
Tmin - Минимальная температура - минимум температуры воздуха на высоте 2 м над землей.
Tmax - Максимальная температура - максимум температуры воздуха на высоте 2 м над землей.
R - Количество осадков - Количество выпавших осадков за период времени, мм. При наведении курсора мыши на число - период времени, за который выпало указанное количество осадков.
R24 - Количество осадков - Количество выпавших осадков за 24 часа, мм.
S - Снежный покров - Высота снежного покрова, см. При наведении курсора мыши на число - состояние снежного покрова и степень покрытия местности в баллах.